Latest Weather Observations for Telfer

IDW60801

Issued at 12:05 pm WST Monday 22 September 2014 (issued every 30 minutes, with the page automatically refreshed every 10 minutes)

About weather observations | Map of weather stations | Latest weather observations for WA | Other Formats
Station Details ID: 013030 Name: TELFER AERO Lat: -21.71 Lon: 122.23 Height: 291.9 m
Data from the previous 72 hours. | See also: Recent months at Telfer
Date/Time
WST
Temp
°C
App
Temp
°C
Dew
Point
Rel
Hum
%
Delta-T
°C
Wind Press
QNH
hPa
Press
MSL
hPa
Rain
since 9 am
mm
Dir
 
Spd
km/h
Gust
km/h
Spd
kts
Gust
kts
22/12:00pm 29.9 25.7 9.9 29 11.4 SSW 22 39 12 21 1014.6 1013.1 0.0
22/11:30am 29.2 25.7 10.8 32 10.6 SSW 20 35 11 19 1015.3 1013.9 0.0
22/11:00am 29.2 25.8 11.3 33 10.4 SSW 20 35 11 19 1015.8 1014.4 0.0
22/10:30am 28.3 24.7 11.8 36 9.6 SSW 22 33 12 18 1016.2 1014.8 0.0
22/10:00am 28.8 25.3 12.2 35 9.8 S 22 28 12 15 1016.4 1015.0 0.0
22/09:30am 27.5 23.7 12.3 39 8.9 S 24 35 13 19 1016.5 1015.1 0.0
22/09:00am 27.3 23.3 11.7 37 9.1 S 24 33 13 18 1017.1 1015.6 0.0
22/08:30am 27.0 21.9 10.7 36 9.3 SSE 28 35 15 19 1017.0 1015.5 0.0
22/08:00am 26.8 21.9 10.1 35 9.4 S 26 30 14 16 1016.9 1015.4 0.0
22/07:30am 26.6 22.0 8.1 31 10.1 SSE 22 30 12 16 1016.6 1015.2 0.0
22/07:00am 25.8 22.0 5.9 28 10.4 ESE 15 19 8 10 1016.2 1014.8 0.0
22/06:30am 25.2 20.1 5.9 29 10.0 SE 22 28 12 15 1015.2 1013.7 0.0
22/06:03am 25.3 18.3 6.0 29 10.1 SW 32 50 17 27 1013.5 1012.0 0.0
22/06:00am 25.1 18.0 5.3 28 10.2 SW 32 46 17 25 1013.4 1011.9 0.0
22/05:30am 25.8 18.5 4.3 25 10.9 SW 32 48 17 26 1012.9 1011.5 0.0
22/05:26am 25.9 19.0 4.4 25 10.9 SW 30 48 16 26 1012.9 1011.5 0.0
22/05:00am 26.8 18.9 4.6 24 11.4 WSW 35 48 19 26 1012.6 1011.2 0.0
22/04:30am 27.4 20.1 4.5 23 11.8 WSW 32 41 17 22 1012.2 1010.8 0.0
22/04:00am 27.6 21.3 4.0 22 12.1 WSW 26 35 14 19 1012.0 1010.5 0.0
22/03:30am 28.3 22.0 3.9 21 12.5 WSW 26 35 14 19 1011.8 1010.3 0.0
22/03:00am 28.3 23.2 3.9 21 12.5 WSW 20 28 11 15 1011.8 1010.3 0.0
22/02:30am 29.2 22.9 3.9 20 13.0 W 26 37 14 20 1011.9 1010.4 0.0
22/02:00am 29.5 23.2 3.5 19 13.3 W 26 33 14 18 1012.1 1010.6 0.0
22/01:30am 29.7 24.5 3.6 19 13.4 W 20 26 11 14 1012.2 1010.8 0.0
22/01:00am 28.9 23.6 3.0 19 13.1 W 20 24 11 13 1012.5 1011.1 0.0
22/12:30am 28.8 22.6 2.1 18 13.3 W 24 30 13 16 1012.7 1011.3 0.0
22/12:00am 27.4 22.5 1.8 19 12.6 WNW 17 24 9 13 1013.0 1011.6 0.0
 
Date/Time
WST
Temp
°C
App
Temp
°C
Dew
Point
Rel
Hum
%
Delta-T
°C
Wind Press
QNH
hPa
Press
MSL
hPa
Rain
since 9 am
mm
Dir
 
Spd
km/h
Gust
km/h
Spd
kts
Gust
kts
21/11:30pm 27.7 22.6 0.5 17 13.1 NW 17 20 9 11 1013.2 1011.7 0.0
21/11:00pm 25.6 23.9 1.7 21 11.6 CALM 0 0 0 0 1013.0 1011.6 0.0
21/10:30pm 27.3 24.3 1.7 19 12.5 N 7 9 4 5 1013.3 1011.8 0.0
21/10:00pm 27.0 23.5 1.4 19 12.4 NNW 9 13 5 7 1013.5 1012.0 0.0
21/09:30pm 29.6 25.2 0.2 15 14.2 W 13 13 7 7 1013.6 1012.1 0.0
21/09:00pm 30.2 25.9 0.7 15 14.5 WNW 13 15 7 8 1013.6 1012.1 0.0
21/08:30pm 31.0 27.4 0.4 14 15.0 WNW 9 9 5 5 1013.6 1012.1 0.0
21/08:00pm 31.5 27.4 -0.2 13 15.5 W 11 11 6 6 1013.5 1012.0 0.0
21/07:30pm 31.7 27.2 -0.1 13 15.5 WNW 13 15 7 8 1013.3 1011.8 0.0
21/07:00pm 32.1 28.1 0.2 13 15.7 WNW 11 15 6 8 1013.0 1011.6 0.0
21/06:30pm 33.6 29.0 -0.9 11 16.9 W 13 15 7 8 1012.7 1011.3 0.0
21/06:00pm 34.4 30.3 -0.3 11 17.2 WNW 11 15 6 8 1012.5 1011.1 0.0
21/05:30pm 35.9 32.1 -0.5 10 18.2 WNW 9 13 5 7 1012.2 1010.8 0.0
21/05:00pm 36.4 31.6 -0.1 10 18.4 NW 15 20 8 11 1012.0 1010.5 0.0
21/04:30pm 37.4 33.6 -0.8 9 19.2 SW 9 15 5 8 1011.8 1010.3 0.0
21/04:00pm 37.0 32.8 -1.1 9 19.0 WNW 11 20 6 11 1011.9 1010.4 0.0
21/03:30pm 38.0 34.3 -0.3 9 19.4 W 9 19 5 10 1012.1 1010.6 0.0
21/03:00pm 37.5 33.7 -0.7 9 19.2 N 9 24 5 13 1012.3 1010.9 0.0
21/02:30pm 37.2 32.6 -0.9 9 19.0 N 13 24 7 13 1012.7 1011.3 0.0
21/02:00pm 37.9 33.4 -0.4 9 19.4 N 13 30 7 16 1012.9 1011.5 0.0
21/01:30pm 37.4 33.6 -0.8 9 19.2 W 9 17 5 9 1013.5 1012.0 0.0
21/01:00pm 37.1 32.5 -1.0 9 19.0 W 13 20 7 11 1014.0 1012.5 0.0
21/12:30pm 37.1 31.4 -1.0 9 19.0 WSW 19 24 10 13 1014.4 1012.9 0.0
21/12:00pm 36.9 31.9 -1.1 9 18.9 SSW 15 20 8 11 1014.9 1013.4 0.0
21/11:30am 36.3 32.2 -0.2 10 18.3 S 11 17 6 9 1015.3 1013.9 0.0
21/11:00am 34.7 30.6 -0.1 11 17.3 SW 11 15 6 8 1015.9 1014.5 0.0
21/10:30am 33.9 30.3 0.5 12 16.7 SSW 9 13 5 7 1016.4 1015.0 0.0
21/10:00am 33.3 30.0 0.1 12 16.4 S 7 13 4 7 1016.8 1015.3 0.0
21/09:30am 32.2 28.9 0.3 13 15.8 E 7 13 4 7 1017.0 1015.5 0.0
21/09:00am 31.0 26.2 0.4 14 15.0 E 15 20 8 11 1016.9 1015.4 0.0
21/08:30am 30.0 25.3 0.6 15 14.4 ESE 15 20 8 11 1016.9 1015.4 0.0
21/08:00am 28.7 24.6 2.1 18 13.2 ESE 13 17 7 9 1016.9 1015.4 0.0
21/07:30am 27.1 23.3 1.5 19 12.5 SE 11 15 6 8 1016.5 1015.1 0.0
21/07:00am 25.6 21.9 2.3 22 11.4 SSE 11 13 6 7 1016.2 1014.8 0.0
21/06:30am 23.1 19.5 0.9 23 10.4 SE 9 11 5 6 1015.9 1014.5 0.0
21/06:00am 21.1 15.6 0.9 26 9.3 SE 19 24 10 13 1015.6 1014.2 0.0
21/05:30am 22.8 18.9 1.2 24 10.1 SW 11 13 6 7 1014.8 1013.3 0.0
21/05:00am 21.6 18.5 1.3 26 9.5 WNW 7 13 4 7 1014.6 1013.1 0.0
21/04:30am 20.7 18.1 1.1 27 9.0 SE 4 9 2 5 1014.2 1012.7 0.0
21/04:00am 21.5 18.3 0.7 25 9.6 SSE 7 9 4 5 1014.0 1012.5 0.0
21/03:30am 22.3 19.2 1.3 25 9.8 SW 7 9 4 5 1013.9 1012.4 0.0
21/03:00am 22.4 20.6 0.9 24 10.0 CALM 0 2 0 1 1013.9 1012.4 0.0
21/02:30am 23.2 20.3 1.5 24 10.3 SW 6 9 3 5 1014.0 1012.5 0.0
21/02:00am 25.4 22.8 0.8 20 11.7 SW 4 7 2 4 1014.2 1012.7 0.0
21/01:30am 29.0 24.8 -1.2 14 14.2 SSW 11 17 6 9 1014.3 1012.8 0.0
21/01:00am 28.2 23.7 0.0 16 13.5 WSW 13 17 7 9 1014.4 1012.9 0.0
21/12:30am 25.3 22.5 2.1 22 11.3 S 6 9 3 5 1014.8 1013.3 0.0
21/12:00am 25.6 22.6 1.7 21 11.6 SE 7 9 4 5 1015.1 1013.6 0.0
 
Date/Time
WST
Temp
°C
App
Temp
°C
Dew
Point
Rel
Hum
%
Delta-T
°C
Wind Press
QNH
hPa
Press
MSL
hPa
Rain
since 9 am
mm
Dir
 
Spd
km/h
Gust
km/h
Spd
kts
Gust
kts
20/11:30pm 28.9 24.0 -0.3 15 14.0 S 15 17 8 9 1015.3 1013.9 0.0
20/11:00pm 25.8 24.2 2.5 22 11.4 CALM 0 0 0 0 1015.6 1014.2 0.0
20/10:30pm 28.0 24.8 0.7 17 13.2 S 7 11 4 6 1015.8 1014.4 0.0
20/10:00pm 28.8 25.2 0.5 16 13.7 SW 9 11 5 6 1015.9 1014.5 0.0
20/09:30pm 32.2 28.6 0.3 13 15.8 SW 9 13 5 7 1016.1 1014.7 0.0
20/09:00pm 31.0 27.7 0.4 14 15.0 SW 7 9 4 5 1016.1 1014.7 0.0
20/08:30pm 30.6 27.1 1.0 15 14.6 SW 9 11 5 6 1016.0 1014.6 0.0
20/08:00pm 31.4 27.8 0.7 14 15.2 SSW 9 11 5 6 1015.7 1014.3 0.0
20/07:30pm 31.2 27.6 0.6 14 15.1 S 9 15 5 8 1015.3 1013.9 0.0
20/07:00pm 32.3 28.5 -0.7 12 16.0 W 9 13 5 7 1014.9 1013.4 0.0
20/06:30pm 32.5 29.1 -0.5 12 16.1 W 7 9 4 5 1014.6 1013.1 0.0
20/06:00pm 33.7 30.6 0.4 12 16.6 WNW 6 7 3 4 1014.2 1012.7 0.0
20/05:30pm 35.2 31.0 -1.0 10 17.8 W 11 19 6 10 1013.8 1012.3 0.0
20/05:00pm 35.7 32.5 -0.6 10 18.1 SE 6 9 3 5 1013.5 1012.0 0.0
20/04:30pm 36.3 33.0 -0.2 10 18.3 WSW 7 17 4 9 1013.3 1011.8 0.0
20/04:00pm 36.4 33.3 -0.1 10 18.4 E 6 9 3 5 1013.2 1011.7 0.0
20/03:30pm 36.7 33.0 0.1 10 18.5 NNE 9 17 5 9 1013.0 1011.6 0.0
20/03:00pm 36.1 31.2 -0.3 10 18.3 SSE 15 24 8 13 1013.0 1011.6 0.0
20/02:30pm 36.2 31.7 -0.2 10 18.3 NW 13 20 7 11 1013.2 1011.7 0.0
20/02:00pm 36.3 31.8 -0.2 10 18.4 SSW 13 22 7 12 1013.5 1012.0 0.0
20/01:30pm 37.4 33.8 0.7 10 18.8 SSW 9 11 5 6 1013.9 1012.4 0.0
20/01:00pm 36.2 32.5 -0.2 10 18.3 NW 9 15 5 8 1014.3 1012.8 0.0
20/12:30pm 35.8 31.3 -0.5 10 18.1 WNW 13 22 7 12 1014.8 1013.3 0.0
20/12:00pm 35.8 31.3 -0.5 10 18.1 WNW 13 20 7 11 1015.3 1013.9 0.0
20/11:30am 35.0 31.0 0.2 11 17.5 SSE 11 19 6 10 1015.9 1014.5 0.0
20/11:00am 34.9 30.5 0.1 11 17.4 SSE 13 20 7 11 1016.3 1014.9 0.0
20/10:30am 34.6 30.3 1.1 12 17.0 S 13 19 7 10 1016.5 1015.1 0.0
20/10:00am 34.1 29.8 0.7 12 16.8 SSE 13 22 7 12 1017.0 1015.5 0.0
20/09:30am 33.1 28.4 1.0 13 16.1 SSE 15 20 8 11 1017.0 1015.5 0.0
20/09:00am 32.9 28.2 0.9 13 16.0 S 15 20 8 11 1017.2 1015.7 0.0
20/08:30am 31.2 27.0 1.5 15 14.9 SSW 13 17 7 9 1017.1 1015.6 0.0
20/08:00am 29.4 25.0 2.6 18 13.5 WSW 15 17 8 9 1016.9 1015.4 0.0
20/07:30am 27.3 23.2 2.4 20 12.3 WSW 13 17 7 9 1016.5 1015.1 0.0
20/07:00am 26.1 21.6 2.1 21 11.7 SW 15 20 8 11 1016.2 1014.8 0.0
20/06:30am 25.3 20.9 2.7 23 11.1 WSW 15 22 8 12 1015.9 1014.5 0.0
20/06:00am 25.0 20.5 2.4 23 11.0 W 15 20 8 11 1015.5 1014.1 0.0
20/05:30am 25.5 21.1 2.9 23 11.2 WSW 15 20 8 11 1015.2 1013.7 0.0
20/05:00am 25.2 21.6 3.2 24 10.9 WSW 11 15 6 8 1014.9 1013.4 0.0
20/04:30am 25.7 19.6 3.0 23 11.3 WSW 24 32 13 17 1014.3 1012.8 0.0
20/04:00am 25.7 21.0 3.0 23 11.2 WSW 17 20 9 11 1014.3 1012.8 0.0
20/03:30am 25.3 21.2 2.1 22 11.3 WSW 13 19 7 10 1014.3 1012.8 0.0
20/03:00am 23.4 20.4 2.3 25 10.2 NW 7 11 4 6 1014.4 1012.9 0.0
20/02:30am 25.3 22.3 2.1 22 11.3 WSW 7 11 4 6 1014.3 1012.8 0.0
20/02:00am 25.8 22.1 2.5 22 11.4 WSW 11 13 6 7 1014.5 1013.0 0.0
20/01:30am 26.0 22.4 2.7 22 11.5 WSW 11 13 6 7 1014.7 1013.2 0.0
20/01:00am 26.5 22.4 2.4 21 11.9 SSW 13 17 7 9 1014.8 1013.3 0.0
20/12:30am 26.2 23.0 2.8 22 11.6 SW 9 13 5 7 1015.1 1013.6 0.0
20/12:00am 26.8 23.2 2.7 21 12.0 WSW 11 17 6 9 1015.3 1013.9 0.0
 
Date/Time
WST
Temp
°C
App
Temp
°C
Dew
Point
Rel
Hum
%
Delta-T
°C
Wind Press
QNH
hPa
Press
MSL
hPa
Rain
since 9 am
mm
Dir
 
Spd
km/h
Gust
km/h
Spd
kts
Gust
kts
19/11:30pm 26.0 23.1 2.7 22 11.5 NW 7 9 4 5 1015.7 1014.3 0.0
19/11:00pm 25.6 22.6 2.3 22 11.4 SE 7 13 4 7 1015.7 1014.3 0.0
19/10:30pm 28.6 24.8 2.0 18 13.2 SW 11 13 6 7 1015.9 1014.5 0.0
19/10:00pm 29.4 25.6 1.8 17 13.7 SSW 11 15 6 8 1016.1 1014.7 0.0
19/09:30pm 30.0 26.2 1.5 16 14.2 SW 11 17 6 9 1016.1 1014.7 0.0
19/09:00pm 31.5 28.1 1.8 15 15.0 SW 9 15 5 8 1016.1 1014.7 0.0
19/08:30pm 30.5 27.1 1.9 16 14.3 SSW 9 15 5 8 1016.0 1014.6 0.0
19/08:00pm 30.9 27.6 2.2 16 14.5 W 9 13 5 7 1015.7 1014.3 0.0
19/07:30pm 31.5 28.5 1.8 15 15.0 WSW 7 11 4 6 1015.4 1014.0 0.0
19/07:00pm 32.2 27.9 1.3 14 15.5 WSW 13 20 7 11 1015.0 1013.5 0.0
19/06:30pm 33.0 28.3 0.9 13 16.1 SW 15 19 8 10 1014.7 1013.2 0.0
19/06:00pm 33.5 28.9 1.3 13 16.3 WSW 15 19 8 10 1014.4 1012.9 0.0
19/05:30pm 34.2 28.5 0.8 12 16.8 WSW 20 28 11 15 1013.9 1012.4 0.0
19/05:00pm 34.9 30.3 1.3 12 17.2 WNW 15 26 8 14 1013.7 1012.2 0.0
19/04:30pm 35.4 30.1 1.7 12 17.4 W 19 28 10 15 1013.4 1011.9 0.0
19/04:00pm 35.9 29.5 0.9 11 17.9 W 24 33 13 18 1013.3 1011.8 0.0
19/03:30pm 35.9 30.8 0.9 11 17.9 WNW 17 20 9 11 1013.0 1011.6 0.0
19/03:00pm 35.9 29.5 0.9 11 17.9 W 24 33 13 18 1013.3 1011.8 0.0
19/02:30pm 36.8 31.4 1.5 11 18.3 NW 19 33 10 18 1013.5 1012.0 0.0
19/02:00pm 35.9 31.6 0.9 11 17.9 W 13 24 7 13 1013.5 1012.0 0.0
19/01:30pm 36.3 32.0 1.2 11 18.0 W 13 39 7 21 1013.9 1012.4 0.0
19/01:00pm 36.6 32.2 0.1 10 18.5 WNW 13 28 7 15 1014.3 1012.8 0.0
19/12:30pm 35.7 30.0 0.7 11 17.8 NW 20 33 11 18 1014.9 1013.4 0.0

Other Formats:

Comma delimited format used in spreadsheet applications
http://www.bom.gov.au/fwo/IDW60801/IDW60801.94319.axf

JavaScript Object Notation format (JSON) in row-major order
http://www.bom.gov.au/fwo/IDW60801/IDW60801.94319.json